This is the latest recevied weather packets stored in our database for station/object K1RFS. If no packets are shown the sender has not sent any weather packets the latest 10 day(s).
| Time | Temp. | Humidity | Pressure | Rain* | Wind** | Luminosity | Snow |
|---|---|---|---|---|---|---|---|
| 1777646018 | 9.44° C | 43% | 1005.5 hPa | 0 mm | - | 27 W/m² | - |
| 1777645715 | 9.44° C | 42% | 1005.8 hPa | 0 mm | - | 27 W/m² | - |
| 1777645412 | 9.44° C | 42% | 1005.7 hPa | 0 mm | - | 26 W/m² | - |
| 1777645107 | 8.89° C | 44% | 1005.5 hPa | 0 mm | - | 26 W/m² | - |
| 1777644804 | 8.89° C | 46% | 1005.3 hPa | 0 mm | - | 25 W/m² | - |
| 1777644502 | 8.89° C | 45% | 1005.5 hPa | 0 mm | - | 25 W/m² | - |
| 1777644198 | 8.33° C | 45% | 1005.4 hPa | 0 mm | - | 24 W/m² | - |
| 1777643894 | 7.78° C | 44% | 1005.6 hPa | 0 mm | - | 23 W/m² | - |
| 1777643593 | 7.22° C | 46% | 1005.4 hPa | 0 mm | - | 22 W/m² | - |
| 1777643289 | 7.22° C | 48% | 1005.4 hPa | 0 mm | - | 22 W/m² | - |
| 1777642985 | 6.67° C | 49% | 1005.3 hPa | 0 mm | - | 21 W/m² | - |
| 1777642681 | 6.67° C | 49% | 1005 hPa | 0 mm | - | 21 W/m² | - |
| 1777642379 | 6.11° C | 50% | 1005.2 hPa | 0 mm | - | 20 W/m² | - |
| 1777642075 | 5.56° C | 51% | 1005.2 hPa | 0 mm | - | 18 W/m² | - |
| 1777641772 | 5.56° C | 52% | 1005.2 hPa | 0 mm | - | 17 W/m² | - |
| 1777641472 | 5° C | 52% | 1004.8 hPa | 0 mm | - | 16 W/m² | - |
| 1777641167 | 5° C | 54% | 1004.8 hPa | 0 mm | - | 15 W/m² | - |
| 1777640863 | 5° C | 54% | 1004.9 hPa | 0 mm | - | 14 W/m² | - |
| 1777640561 | 4.44° C | 55% | 1004.8 hPa | 0 mm | - | 13 W/m² | - |
| 1777640257 | 3.89° C | 55% | 1004.7 hPa | 0 mm | - | 11 W/m² | - |
| 1777639953 | 3.89° C | 56% | 1004.5 hPa | 0 mm | - | 9 W/m² | - |
| 1777639651 | 3.89° C | 55% | 1004.5 hPa | 0 mm | - | 8 W/m² | - |
| 1777639349 | 3.89° C | 55% | 1004.5 hPa | 0 mm | - | 6 W/m² | - |
| 1777639043 | 4.44° C | 54% | 1004.5 hPa | 0 mm | - | 4 W/m² | - |
| 1777638740 | 4.44° C | 54% | 1004.5 hPa | 0 mm | - | 3 W/m² | - |
* Rain latest hour (hover to see other rain measurements)
** Current wind speed in m/s (hover to see current wind gust speed)